Time,TemperatureF,DewpointF,PressureIn,WindDirection,WindDirectionDegrees,WindSpeedMPH,WindSpeedGustMPH,Humidity,HourlyPrecipIn,Conditions,Clouds,dailyrainin,SolarRadiationWatts/m^2,SoftwareType,DateUTC
2013-05-22 00:03:00,69.3,43.2,29.73,SSW,199,20.0,26.0,39,0.00,,,0.00,0.0,meteohub,2013-05-22 07:03:00,
2013-05-22 00:08:00,69.3,43.2,29.74,SW,236,10.0,26.0,39,0.00,,,0.00,0.0,meteohub,2013-05-22 07:08:00,
2013-05-22 00:13:00,69.1,41.7,29.74,SW,232,15.0,26.0,37,0.00,,,0.00,0.0,meteohub,2013-05-22 07:13:00,
2013-05-22 00:18:00,68.7,40.6,29.74,SSW,213,11.0,26.0,36,0.00,,,0.00,0.0,meteohub,2013-05-22 07:18:00,
2013-05-22 00:23:00,68.4,40.3,29.74,SW,223,13.0,26.0,36,0.00,,,0.00,0.0,meteohub,2013-05-22 07:23:00,
2013-05-22 00:28:00,68.2,41.5,29.74,SW,230,10.0,26.0,38,0.00,,,0.00,0.0,meteohub,2013-05-22 07:28:00,
2013-05-22 00:33:00,67.6,41.2,29.74,WSW,245,9.0,26.0,38,0.00,,,0.00,0.0,meteohub,2013-05-22 07:33:00,
2013-05-22 00:38:00,67.5,41.0,29.74,SW,230,13.0,26.0,38,0.00,,,0.00,0.0,meteohub,2013-05-22 07:38:00,
2013-05-22 00:43:00,67.3,40.1,29.74,WSW,254,10.0,26.0,37,0.00,,,0.00,0.0,meteohub,2013-05-22 07:43:00,
2013-05-22 00:48:00,66.7,39.0,29.74,SW,233,21.0,26.0,36,0.00,,,0.00,0.0,meteohub,2013-05-22 07:48:00,
2013-05-22 00:53:00,66.4,38.7,29.74,WSW,241,16.0,26.0,36,0.00,,,0.00,0.0,meteohub,2013-05-22 07:53:00,
2013-05-22 00:58:00,65.8,38.8,29.74,SW,226,7.0,26.0,37,0.00,,,0.00,0.0,meteohub,2013-05-22 07:58:00,
2013-05-22 01:03:00,65.3,38.3,29.74,SW,223,14.0,23.0,37,0.00,,,0.00,0.0,meteohub,2013-05-22 08:03:00,
2013-05-22 01:08:00,64.9,38.7,29.74,SW,230,10.0,23.0,38,0.00,,,0.00,0.0,meteohub,2013-05-22 08:08:00,
2013-05-22 01:13:00,64.9,38.1,29.74,SW,221,15.0,23.0,37,0.00,,,0.00,0.0,meteohub,2013-05-22 08:13:00,
2013-05-22 01:19:00,64.8,37.9,29.73,SW,227,9.0,23.0,37,0.00,,,0.00,0.0,meteohub,2013-05-22 08:19:00,
2013-05-22 01:24:00,64.4,37.6,29.73,WNW,293,16.0,23.0,37,0.00,,,0.00,0.0,meteohub,2013-05-22 08:24:00,
2013-05-22 01:29:00,64.0,37.2,29.73,WSW,237,18.0,23.0,37,0.00,,,0.00,0.0,meteohub,2013-05-22 08:29:00,
2013-05-22 01:34:00,63.9,36.3,29.73,WSW,252,5.0,23.0,36,0.00,,,0.00,0.0,meteohub,2013-05-22 08:34:00,
2013-05-22 01:39:00,63.7,36.9,29.73,WSW,248,9.0,23.0,37,0.00,,,0.00,0.0,meteohub,2013-05-22 08:39:00,
2013-05-22 01:44:00,63.3,36.0,29.73,WSW,244,9.0,23.0,36,0.00,,,0.00,0.0,meteohub,2013-05-22 08:44:00,
2013-05-22 01:49:00,63.1,35.8,29.73,West,281,13.0,23.0,36,0.00,,,0.00,0.0,meteohub,2013-05-22 08:49:00,
2013-05-22 01:54:00,63.0,35.6,29.73,WSW,254,10.0,23.0,36,0.00,,,0.00,0.0,meteohub,2013-05-22 08:54:00,
2013-05-22 01:59:00,63.0,35.6,29.73,West,264,2.0,19.0,36,0.00,,,0.00,0.0,meteohub,2013-05-22 08:59:00,
2013-05-22 02:04:00,62.8,34.7,29.72,SW,232,8.0,19.0,35,0.00,,,0.00,0.0,meteohub,2013-05-22 09:04:00,
2013-05-22 02:09:00,62.8,34.7,29.72,SW,227,6.0,19.0,35,0.00,,,0.00,0.0,meteohub,2013-05-22 09:09:00,
2013-05-22 02:14:00,62.4,34.3,29.72,WSW,250,2.0,19.0,35,0.00,,,0.00,0.0,meteohub,2013-05-22 09:14:00,
2013-05-22 02:19:00,62.4,34.3,29.72,WSW,237,10.0,19.0,35,0.00,,,0.00,0.0,meteohub,2013-05-22 09:19:00,
2013-05-22 02:24:00,62.2,33.4,29.72,WSW,244,9.0,19.0,34,0.00,,,0.00,0.0,meteohub,2013-05-22 09:24:00,
2013-05-22 02:29:00,62.2,33.4,29.72,WSW,250,10.0,19.0,34,0.00,,,0.00,0.0,meteohub,2013-05-22 09:29:00,
2013-05-22 02:34:00,62.1,33.4,29.72,WSW,250,8.0,19.0,34,0.00,,,0.00,0.0,meteohub,2013-05-22 09:34:00,
2013-05-22 02:39:00,61.9,32.5,29.72,SW,229,9.0,19.0,33,0.00,,,0.00,0.0,meteohub,2013-05-22 09:39:00,
2013-05-22 02:44:00,61.5,32.2,29.71,SSW,213,10.0,19.0,33,0.00,,,0.00,0.0,meteohub,2013-05-22 09:44:00,
2013-05-22 02:49:00,61.5,32.2,29.71,SW,236,10.0,19.0,33,0.00,,,0.00,0.0,meteohub,2013-05-22 09:49:00,
2013-05-22 02:54:00,61.5,32.2,29.71,WSW,242,6.0,23.0,33,0.00,,,0.00,0.0,meteohub,2013-05-22 09:54:00,
2013-05-22 02:59:00,61.3,31.3,29.71,SW,219,10.0,23.0,32,0.00,,,0.00,0.0,meteohub,2013-05-22 09:59:00,
2013-05-22 03:04:00,61.2,31.1,29.71,WSW,237,5.0,23.0,32,0.00,,,0.00,0.0,meteohub,2013-05-22 10:04:00,
2013-05-22 03:09:00,61.2,30.2,29.71,WSW,254,9.0,23.0,31,0.00,,,0.00,0.0,meteohub,2013-05-22 10:09:00,
2013-05-22 03:14:00,61.0,30.2,29.70,SW,223,5.0,23.0,31,0.00,,,0.00,0.0,meteohub,2013-05-22 10:14:00,
2013-05-22 03:19:00,60.8,30.0,29.71,SW,230,6.0,23.0,31,0.00,,,0.00,0.0,meteohub,2013-05-22 10:19:00,
2013-05-22 03:24:00,60.6,28.9,29.70,SW,234,15.0,23.0,30,0.00,,,0.00,0.0,meteohub,2013-05-22 10:24:00,
2013-05-22 03:29:00,60.6,28.9,29.70,SW,227,9.0,23.0,30,0.00,,,0.00,0.0,meteohub,2013-05-22 10:29:00,
2013-05-22 03:34:00,60.4,28.9,29.70,WSW,246,7.0,23.0,30,0.00,,,0.00,0.0,meteohub,2013-05-22 10:34:00,
2013-05-22 03:39:00,60.3,27.9,29.70,SW,230,14.0,20.0,29,0.00,,,0.00,0.0,meteohub,2013-05-22 10:39:00,
2013-05-22 03:44:00,60.3,28.8,29.70,SW,215,9.0,20.0,30,0.00,,,0.00,0.0,meteohub,2013-05-22 10:44:00,
2013-05-22 03:49:00,60.1,28.6,29.70,WSW,254,5.0,20.0,30,0.00,,,0.00,0.0,meteohub,2013-05-22 10:49:00,
2013-05-22 03:54:00,60.1,28.6,29.70,West,264,0.0,20.0,30,0.00,,,0.00,0.0,meteohub,2013-05-22 10:54:00,
2013-05-22 03:59:00,59.9,28.4,29.70,West,261,6.0,20.0,30,0.00,,,0.00,0.0,meteohub,2013-05-22 10:59:00,
2013-05-22 04:04:00,60.1,28.6,29.70,WNW,284,0.0,20.0,30,0.00,,,0.00,0.0,meteohub,2013-05-22 11:04:00,
2013-05-22 04:09:00,59.7,28.2,29.70,West,271,8.0,20.0,30,0.00,,,0.00,0.0,meteohub,2013-05-22 11:09:00,
2013-05-22 04:14:00,59.5,28.0,29.70,West,261,5.0,20.0,30,0.00,,,0.00,0.0,meteohub,2013-05-22 11:14:00,
2013-05-22 04:19:00,59.5,28.0,29.70,West,276,5.0,20.0,30,0.00,,,0.00,0.0,meteohub,2013-05-22 11:19:00,
2013-05-22 04:24:00,59.5,28.0,29.70,West,262,4.0,15.0,30,0.00,,,0.00,0.0,meteohub,2013-05-22 11:24:00,
2013-05-22 04:29:00,59.5,27.3,29.70,WSW,257,6.0,15.0,29,0.00,,,0.00,0.0,meteohub,2013-05-22 11:29:00,
2013-05-22 04:34:00,59.4,27.9,29.70,West,277,1.0,15.0,30,0.00,,,0.00,0.0,meteohub,2013-05-22 11:34:00,
2013-05-22 04:39:00,59.4,27.9,29.70,West,267,6.0,15.0,30,0.00,,,0.00,0.0,meteohub,2013-05-22 11:39:00,
2013-05-22 04:45:00,59.2,27.7,29.69,WSW,250,7.0,15.0,30,0.00,,,0.00,0.0,meteohub,2013-05-22 11:45:00,
2013-05-22 04:49:00,59.2,27.7,29.69,SW,232,4.0,15.0,30,0.00,,,0.00,0.0,meteohub,2013-05-22 11:49:00,
2013-05-22 04:54:00,59.2,27.7,29.69,West,259,8.0,15.0,30,0.00,,,0.00,0.0,meteohub,2013-05-22 11:54:00,
2013-05-22 05:00:00,58.8,27.5,29.69,WSW,245,5.0,15.0,30,0.00,,,0.00,0.0,meteohub,2013-05-22 12:00:00,
2013-05-22 05:05:00,58.6,27.3,29.69,WSW,239,5.0,15.0,30,0.00,,,0.00,0.0,meteohub,2013-05-22 12:05:00,
2013-05-22 05:10:00,58.3,27.0,29.69,WSW,257,8.0,15.0,30,0.00,,,0.00,0.0,meteohub,2013-05-22 12:10:00,
2013-05-22 05:15:00,58.3,26.2,29.69,WSW,253,10.0,15.0,29,0.00,,,0.00,0.0,meteohub,2013-05-22 12:15:00,
2013-05-22 05:20:00,58.3,26.2,29.69,SW,225,8.0,15.0,29,0.00,,,0.00,0.0,meteohub,2013-05-22 12:20:00,
2013-05-22 05:25:00,58.5,25.5,29.69,SW,231,7.0,15.0,28,0.00,,,0.00,0.0,meteohub,2013-05-22 12:25:00,
2013-05-22 05:30:00,58.6,25.7,29.69,SW,230,7.0,19.0,28,0.00,,,0.00,0.0,meteohub,2013-05-22 12:30:00,
2013-05-22 05:35:00,58.6,24.8,29.69,WSW,252,9.0,19.0,27,0.00,,,0.00,0.0,meteohub,2013-05-22 12:35:00,
2013-05-22 05:40:00,58.6,24.8,29.69,SW,230,7.0,19.0,27,0.00,,,0.00,0.0,meteohub,2013-05-22 12:40:00,
2013-05-22 05:45:00,58.6,24.8,29.69,WSW,249,10.0,19.0,27,0.00,,,0.00,0.0,meteohub,2013-05-22 12:45:00,
2013-05-22 05:50:00,58.6,24.8,29.69,SW,221,10.0,19.0,27,0.00,,,0.00,7.0,meteohub,2013-05-22 12:50:00,
2013-05-22 05:55:00,58.6,24.8,29.69,WSW,242,10.0,19.0,27,0.00,,,0.00,9.0,meteohub,2013-05-22 12:55:00,
2013-05-22 06:00:00,58.8,25.0,29.69,WNW,297,10.0,19.0,27,0.00,,,0.00,12.0,meteohub,2013-05-22 13:00:00,
2013-05-22 06:05:00,58.8,25.0,29.69,WSW,255,15.0,19.0,27,0.00,,,0.00,16.0,meteohub,2013-05-22 13:05:00,
2013-05-22 06:10:00,58.5,25.5,29.69,SW,235,2.0,19.0,28,0.00,,,0.00,18.0,meteohub,2013-05-22 13:10:00,
2013-05-22 06:15:00,58.5,25.5,29.70,WSW,246,7.0,19.0,28,0.00,,,0.00,21.0,meteohub,2013-05-22 13:15:00,
2013-05-22 06:20:00,58.3,25.3,29.70,SW,214,7.0,23.0,28,0.00,,,0.00,23.0,meteohub,2013-05-22 13:20:00,
2013-05-22 06:25:00,58.1,26.1,29.70,WSW,251,9.0,23.0,29,0.00,,,0.00,25.0,meteohub,2013-05-22 13:25:00,
2013-05-22 06:30:00,57.9,25.9,29.70,West,264,18.0,23.0,29,0.00,,,0.00,26.0,meteohub,2013-05-22 13:30:00,
2013-05-22 06:35:00,57.9,26.6,29.70,West,279,15.0,23.0,30,0.00,,,0.00,28.0,meteohub,2013-05-22 13:35:00,
2013-05-22 06:40:00,57.7,27.3,29.70,SW,235,6.0,23.0,31,0.00,,,0.00,33.0,meteohub,2013-05-22 13:40:00,
2013-05-22 06:45:00,57.6,27.9,29.71,West,265,10.0,23.0,32,0.00,,,0.00,47.0,meteohub,2013-05-22 13:45:00,
2013-05-22 06:50:00,57.6,28.6,29.71,WNW,285,5.0,23.0,33,0.00,,,0.00,72.0,meteohub,2013-05-22 13:50:00,
2013-05-22 06:55:00,57.6,29.5,29.71,WSW,244,18.0,23.0,34,0.00,,,0.00,97.0,meteohub,2013-05-22 13:55:00,
2013-05-22 07:00:00,57.6,29.5,29.71,WNW,301,7.0,23.0,34,0.00,,,0.00,127.0,meteohub,2013-05-22 14:00:00,
2013-05-22 07:05:00,57.6,30.7,29.71,WSW,240,9.0,23.0,36,0.00,,,0.00,156.0,meteohub,2013-05-22 14:05:00,
2013-05-22 07:10:00,57.4,31.3,29.71,WSW,242,9.0,23.0,37,0.00,,,0.00,181.0,meteohub,2013-05-22 14:10:00,
2013-05-22 07:15:00,57.4,32.0,29.71,WSW,248,5.0,23.0,38,0.00,,,0.00,206.0,meteohub,2013-05-22 14:15:00,
2013-05-22 07:20:00,57.4,32.5,29.71,WSW,257,9.0,23.0,39,0.00,,,0.00,221.0,meteohub,2013-05-22 14:20:00,
2013-05-22 07:25:00,57.2,32.5,29.71,WSW,247,2.0,23.0,39,0.00,,,0.00,239.0,meteohub,2013-05-22 14:25:00,
2013-05-22 07:30:00,57.4,33.3,29.71,WNW,284,6.0,23.0,40,0.00,,,0.00,258.0,meteohub,2013-05-22 14:30:00,
2013-05-22 07:35:00,57.4,33.8,29.72,West,262,14.0,23.0,41,0.00,,,0.00,276.0,meteohub,2013-05-22 14:35:00,
2013-05-22 07:40:00,57.4,33.8,29.72,West,273,6.0,23.0,41,0.00,,,0.00,292.0,meteohub,2013-05-22 14:40:00,
2013-05-22 07:45:00,57.6,34.7,29.71,West,265,5.0,23.0,42,0.00,,,0.00,311.0,meteohub,2013-05-22 14:45:00,
2013-05-22 07:50:00,57.7,34.9,29.72,WNW,296,2.0,23.0,42,0.00,,,0.00,329.0,meteohub,2013-05-22 14:50:00,
2013-05-22 07:55:00,57.7,34.9,29.72,SW,227,4.0,23.0,42,0.00,,,0.00,343.0,meteohub,2013-05-22 14:55:00,
2013-05-22 08:00:00,57.7,34.9,29.72,West,269,15.0,23.0,42,0.00,,,0.00,362.0,meteohub,2013-05-22 15:00:00,
2013-05-22 08:05:00,57.7,35.4,29.72,WNW,294,6.0,23.0,43,0.00,,,0.00,380.0,meteohub,2013-05-22 15:05:00,
2013-05-22 08:10:00,57.9,34.9,29.72,West,267,9.0,19.0,42,0.00,,,0.00,397.0,meteohub,2013-05-22 15:10:00,
2013-05-22 08:15:00,58.5,35.4,29.72,WSW,254,5.0,19.0,42,0.00,,,0.00,417.0,meteohub,2013-05-22 15:15:00,
2013-05-22 08:20:00,58.8,35.8,29.72,WSW,252,5.0,19.0,42,0.00,,,0.00,432.0,meteohub,2013-05-22 15:20:00,
2013-05-22 08:25:00,59.2,36.1,29.71,SW,218,7.0,19.0,42,0.00,,,0.00,452.0,meteohub,2013-05-22 15:25:00,
2013-05-22 08:30:00,59.5,35.8,29.71,WNW,288,4.0,19.0,41,0.00,,,0.00,471.0,meteohub,2013-05-22 15:30:00,
2013-05-22 08:36:00,60.1,36.3,29.71,West,266,13.0,19.0,41,0.00,,,0.00,483.0,meteohub,2013-05-22 15:36:00,
2013-05-22 08:41:00,60.4,36.0,29.71,West,276,12.0,19.0,40,0.00,,,0.00,503.0,meteohub,2013-05-22 15:41:00,
2013-05-22 08:46:00,60.8,35.6,29.71,West,266,0.0,19.0,39,0.00,,,0.00,519.0,meteohub,2013-05-22 15:46:00,
2013-05-22 08:51:00,61.3,36.1,29.71,West,267,13.0,19.0,39,0.00,,,0.00,536.0,meteohub,2013-05-22 15:51:00,
2013-05-22 08:55:00,61.9,36.7,29.71,WSW,248,13.0,19.0,39,0.00,,,0.00,555.0,meteohub,2013-05-22 15:55:00,
2013-05-22 09:01:00,62.1,36.1,29.71,WSW,251,12.0,20.0,38,0.00,,,0.00,571.0,meteohub,2013-05-22 16:01:00,
2013-05-22 09:06:00,62.4,36.5,29.71,West,265,8.0,20.0,38,0.00,,,0.00,589.0,meteohub,2013-05-22 16:06:00,
2013-05-22 09:11:00,62.8,36.9,29.71,NW,308,7.0,20.0,38,0.00,,,0.00,606.0,meteohub,2013-05-22 16:11:00,
2013-05-22 09:16:00,63.1,36.5,29.71,West,272,10.0,20.0,37,0.00,,,0.00,624.0,meteohub,2013-05-22 16:16:00,
2013-05-22 09:21:00,63.7,36.9,29.70,West,279,10.0,20.0,37,0.00,,,0.00,636.0,meteohub,2013-05-22 16:21:00,
2013-05-22 09:26:00,64.0,36.5,29.70,West,271,9.0,20.0,36,0.00,,,0.00,654.0,meteohub,2013-05-22 16:26:00,
2013-05-22 09:31:00,64.6,37.8,29.70,WNW,301,8.0,20.0,37,0.00,,,0.00,668.0,meteohub,2013-05-22 16:31:00,
2013-05-22 09:36:00,64.9,37.4,29.70,West,281,5.0,20.0,36,0.00,,,0.00,686.0,meteohub,2013-05-22 16:36:00,
2013-05-22 09:41:00,65.3,36.9,29.70,West,266,9.0,20.0,35,0.00,,,0.00,700.0,meteohub,2013-05-22 16:41:00,
2013-05-22 09:46:00,65.8,37.4,29.70,WSW,254,16.0,20.0,35,0.00,,,0.00,714.0,meteohub,2013-05-22 16:46:00,
2013-05-22 09:51:00,66.4,37.9,29.70,WSW,252,8.0,20.0,35,0.00,,,0.00,729.0,meteohub,2013-05-22 16:51:00,
2013-05-22 09:56:00,66.6,38.1,29.70,WSW,254,12.0,22.0,35,0.00,,,0.00,742.0,meteohub,2013-05-22 16:56:00,
2013-05-22 10:01:00,66.9,38.3,29.70,West,274,10.0,22.0,35,0.00,,,0.00,758.0,meteohub,2013-05-22 17:01:00,
2013-05-22 10:06:00,67.5,38.1,29.69,WNW,284,10.0,22.0,34,0.00,,,0.00,770.0,meteohub,2013-05-22 17:06:00,
2013-05-22 10:11:00,67.8,38.5,29.69,WNW,286,8.0,22.0,34,0.00,,,0.00,780.0,meteohub,2013-05-22 17:11:00,
2013-05-22 10:16:00,68.2,38.7,29.69,WNW,292,5.0,22.0,34,0.00,,,0.00,795.0,meteohub,2013-05-22 17:16:00,
2013-05-22 10:21:00,68.7,39.2,29.69,WNW,288,9.0,22.0,34,0.00,,,0.00,810.0,meteohub,2013-05-22 17:21:00,
2013-05-22 10:26:00,69.1,38.8,29.69,West,278,10.0,22.0,33,0.00,,,0.00,816.0,meteohub,2013-05-22 17:26:00,
2013-05-22 10:31:00,69.4,39.9,29.69,WNW,303,5.0,22.0,34,0.00,,,0.00,831.0,meteohub,2013-05-22 17:31:00,
2013-05-22 10:36:00,70.2,38.8,29.69,WNW,292,4.0,22.0,32,0.00,,,0.00,842.0,meteohub,2013-05-22 17:36:00,
2013-05-22 10:41:00,70.5,39.2,29.69,NW,304,7.0,19.0,32,0.00,,,0.00,851.0,meteohub,2013-05-22 17:41:00,
2013-05-22 10:46:00,71.1,38.8,29.68,NW,306,13.0,19.0,31,0.00,,,0.00,865.0,meteohub,2013-05-22 17:46:00,
2013-05-22 10:51:00,71.8,38.7,29.68,NW,305,8.0,19.0,30,0.00,,,0.00,874.0,meteohub,2013-05-22 17:51:00,
2013-05-22 10:56:00,72.9,38.7,29.68,SW,223,5.0,19.0,29,0.00,,,0.00,889.0,meteohub,2013-05-22 17:56:00,
2013-05-22 11:01:00,74.5,37.4,29.68,SW,223,12.0,19.0,26,0.00,,,0.00,900.0,meteohub,2013-05-22 18:01:00,
2013-05-22 11:06:00,75.2,37.9,29.68,SW,232,9.0,19.0,26,0.00,,,0.00,914.0,meteohub,2013-05-22 18:06:00,
2013-05-22 11:11:00,76.1,37.8,29.68,West,259,8.0,19.0,25,0.00,,,0.00,923.0,meteohub,2013-05-22 18:11:00,
2013-05-22 11:16:00,76.5,37.0,29.68,SW,219,16.0,19.0,24,0.00,,,0.00,930.0,meteohub,2013-05-22 18:16:00,
2013-05-22 11:21:00,76.5,37.0,29.68,SW,220,1.0,19.0,24,0.00,,,0.00,937.0,meteohub,2013-05-22 18:21:00,
2013-05-22 11:26:00,76.8,37.2,29.68,West,263,2.0,19.0,24,0.00,,,0.00,947.0,meteohub,2013-05-22 18:26:00,
2013-05-22 11:31:00,77.0,39.6,29.68,SSW,194,3.0,22.0,26,0.00,,,0.00,951.0,meteohub,2013-05-22 18:31:00,
2013-05-22 11:36:00,76.6,38.1,29.68,SW,223,5.0,22.0,25,0.00,,,0.00,963.0,meteohub,2013-05-22 18:36:00,
2013-05-22 11:41:00,77.2,38.7,29.68,SSW,212,12.0,22.0,25,0.00,,,0.00,969.0,meteohub,2013-05-22 18:41:00,
2013-05-22 11:46:00,77.5,37.9,29.68,SW,232,11.0,22.0,24,0.00,,,0.00,970.0,meteohub,2013-05-22 18:46:00,
2013-05-22 11:51:00,77.4,37.8,29.68,SW,227,10.0,22.0,24,0.00,,,0.00,981.0,meteohub,2013-05-22 18:51:00,
2013-05-22 11:56:00,77.5,39.0,29.68,SW,232,16.0,22.0,25,0.00,,,0.00,983.0,meteohub,2013-05-22 18:56:00,
2013-05-22 12:01:00,77.7,39.0,29.68,SW,227,5.0,22.0,25,0.00,,,0.00,984.0,meteohub,2013-05-22 19:01:00,
2013-05-22 12:06:00,77.7,40.1,29.68,SW,223,1.0,22.0,26,0.00,,,0.00,995.0,meteohub,2013-05-22 19:06:00,
2013-05-22 12:11:00,77.5,39.9,29.68,West,274,5.0,22.0,26,0.00,,,0.00,997.0,meteohub,2013-05-22 19:11:00,
2013-05-22 12:16:00,77.5,39.9,29.68,SW,221,10.0,22.0,26,0.00,,,0.00,998.0,meteohub,2013-05-22 19:16:00,
2013-05-22 12:21:00,77.4,39.7,29.68,SW,228,7.0,24.0,26,0.00,,,0.00,995.0,meteohub,2013-05-22 19:21:00,
2013-05-22 12:26:00,77.2,40.6,29.68,SW,215,10.0,24.0,27,0.00,,,0.00,998.0,meteohub,2013-05-22 19:26:00,
2013-05-22 12:31:00,77.2,40.6,29.68,WSW,258,16.0,24.0,27,0.00,,,0.00,998.0,meteohub,2013-05-22 19:31:00,
2013-05-22 12:36:00,76.6,40.1,29.68,West,269,10.0,24.0,27,0.00,,,0.00,1002.0,meteohub,2013-05-22 19:36:00,
2013-05-22 12:41:00,76.5,41.0,29.68,WNW,282,9.0,24.0,28,0.00,,,0.00,1004.0,meteohub,2013-05-22 19:41:00,
2013-05-22 12:47:00,76.1,40.6,29.68,West,281,20.0,24.0,28,0.00,,,0.00,1013.0,meteohub,2013-05-22 19:47:00,
2013-05-22 12:52:00,75.7,40.3,29.68,WNW,293,8.0,24.0,28,0.00,,,0.00,1007.0,meteohub,2013-05-22 19:52:00,
2013-05-22 12:57:00,75.7,41.2,29.68,West,259,11.0,24.0,29,0.00,,,0.00,1009.0,meteohub,2013-05-22 19:57:00,
2013-05-22 13:02:00,75.9,39.6,29.68,WSW,243,7.0,24.0,27,0.00,,,0.00,1005.0,meteohub,2013-05-22 20:02:00,
2013-05-22 13:07:00,76.3,40.8,29.68,West,275,4.0,24.0,28,0.00,,,0.00,1002.0,meteohub,2013-05-22 20:07:00,
2013-05-22 13:12:00,76.3,39.9,29.68,WSW,243,10.0,24.0,27,0.00,,,0.00,1000.0,meteohub,2013-05-22 20:12:00,
2013-05-22 13:17:00,76.3,39.9,29.68,SW,229,9.0,24.0,27,0.00,,,0.00,1004.0,meteohub,2013-05-22 20:17:00,
2013-05-22 13:22:00,76.3,40.8,29.68,WSW,252,14.0,21.0,28,0.00,,,0.00,988.0,meteohub,2013-05-22 20:22:00,
2013-05-22 13:27:00,76.3,40.8,29.67,West,277,7.0,21.0,28,0.00,,,0.00,998.0,meteohub,2013-05-22 20:27:00,
2013-05-22 13:32:00,76.6,41.2,29.67,WNW,288,10.0,21.0,28,0.00,,,0.00,988.0,meteohub,2013-05-22 20:32:00,
2013-05-22 13:37:00,77.2,41.5,29.67,WNW,283,12.0,21.0,28,0.00,,,0.00,990.0,meteohub,2013-05-22 20:37:00,
2013-05-22 13:42:00,77.5,41.0,29.67,SW,215,7.0,21.0,27,0.00,,,0.00,990.0,meteohub,2013-05-22 20:42:00,
2013-05-22 13:47:00,77.5,39.9,29.67,West,267,8.0,21.0,26,0.00,,,0.00,962.0,meteohub,2013-05-22 20:47:00,
2013-05-22 13:52:00,77.5,41.0,29.67,West,280,9.0,21.0,27,0.00,,,0.00,970.0,meteohub,2013-05-22 20:52:00,
2013-05-22 13:57:00,77.5,41.9,29.67,SW,232,6.0,21.0,28,0.00,,,0.00,956.0,meteohub,2013-05-22 20:57:00,
2013-05-22 14:02:00,77.5,39.0,29.67,West,265,9.0,21.0,25,0.00,,,0.00,949.0,meteohub,2013-05-22 21:02:00,
2013-05-22 14:07:00,77.5,41.0,29.66,SSW,205,11.0,21.0,27,0.00,,,0.00,949.0,meteohub,2013-05-22 21:07:00,
2013-05-22 14:12:00,77.7,39.0,29.66,WNW,289,1.0,21.0,25,0.00,,,0.00,935.0,meteohub,2013-05-22 21:12:00,
2013-05-22 14:17:00,77.5,39.9,29.67,West,266,2.0,21.0,26,0.00,,,0.00,949.0,meteohub,2013-05-22 21:17:00,
2013-05-22 14:22:00,77.4,41.7,29.66,WSW,246,4.0,21.0,28,0.00,,,0.00,932.0,meteohub,2013-05-22 21:22:00,
2013-05-22 14:27:00,77.4,39.7,29.66,WNW,284,2.0,21.0,26,0.00,,,0.00,942.0,meteohub,2013-05-22 21:27:00,
2013-05-22 14:32:00,77.2,39.6,29.66,WNW,284,11.0,21.0,26,0.00,,,0.00,926.0,meteohub,2013-05-22 21:32:00,
2013-05-22 14:37:00,77.0,40.5,29.66,West,271,8.0,21.0,27,0.00,,,0.00,919.0,meteohub,2013-05-22 21:37:00,
2013-05-22 14:42:00,77.4,39.7,29.66,WSW,257,15.0,21.0,26,0.00,,,0.00,904.0,meteohub,2013-05-22 21:42:00,
2013-05-22 14:47:00,76.8,39.4,29.66,West,277,9.0,21.0,26,0.00,,,0.00,904.0,meteohub,2013-05-22 21:47:00,
2013-05-22 14:52:00,76.8,39.4,29.66,WNW,286,8.0,21.0,26,0.00,,,0.00,888.0,meteohub,2013-05-22 21:52:00,
2013-05-22 14:57:00,76.6,39.2,29.66,West,269,7.0,21.0,26,0.00,,,0.00,874.0,meteohub,2013-05-22 21:57:00,
2013-05-22 15:02:00,75.9,38.7,29.66,WNW,302,9.0,21.0,26,0.00,,,0.00,842.0,meteohub,2013-05-22 22:02:00,
2013-05-22 15:07:00,75.6,39.2,29.66,SW,225,14.0,21.0,27,0.00,,,0.00,846.0,meteohub,2013-05-22 22:07:00,
2013-05-22 15:12:00,75.6,38.3,29.66,WNW,286,15.0,21.0,26,0.00,,,0.00,847.0,meteohub,2013-05-22 22:12:00,
2013-05-22 15:17:00,75.4,38.1,29.67,West,259,13.0,26.0,26,0.00,,,0.00,828.0,meteohub,2013-05-22 22:17:00,
2013-05-22 15:22:00,75.0,37.8,29.67,NW,314,11.0,26.0,26,0.00,,,0.00,814.0,meteohub,2013-05-22 22:22:00,
2013-05-22 15:27:00,74.7,37.6,29.67,West,261,13.0,26.0,26,0.00,,,0.00,798.0,meteohub,2013-05-22 22:27:00,
2013-05-22 15:32:00,74.1,37.0,29.67,NW,306,18.0,26.0,26,0.00,,,0.00,814.0,meteohub,2013-05-22 22:32:00,
2013-05-22 15:37:00,73.9,37.8,29.66,West,261,11.0,26.0,27,0.00,,,0.00,795.0,meteohub,2013-05-22 22:37:00,
2013-05-22 15:42:00,74.1,37.9,29.66,SW,230,7.0,26.0,27,0.00,,,0.00,773.0,meteohub,2013-05-22 22:42:00,
2013-05-22 15:47:00,74.5,38.3,29.66,West,269,19.0,26.0,27,0.00,,,0.00,772.0,meteohub,2013-05-22 22:47:00,
2013-05-22 15:52:00,74.1,39.0,29.66,West,275,14.0,26.0,28,0.00,,,0.00,745.0,meteohub,2013-05-22 22:52:00,
2013-05-22 15:57:00,73.9,37.8,29.66,West,259,8.0,26.0,27,0.00,,,0.00,726.0,meteohub,2013-05-22 22:57:00,
2013-05-22 16:02:00,73.8,37.8,29.66,West,261,2.0,23.0,27,0.00,,,0.00,714.0,meteohub,2013-05-22 23:02:00,
2013-05-22 16:07:00,74.1,37.9,29.66,West,271,4.0,23.0,27,0.00,,,0.00,715.0,meteohub,2013-05-22 23:07:00,
2013-05-22 16:12:00,74.1,37.0,29.65,WNW,284,3.0,23.0,26,0.00,,,0.00,691.0,meteohub,2013-05-22 23:12:00,
2013-05-22 16:17:00,73.9,36.0,29.66,NNE,22,7.0,23.0,25,0.00,,,0.00,679.0,meteohub,2013-05-22 23:17:00,
2013-05-22 16:22:00,74.1,37.9,29.65,WNW,302,4.0,23.0,27,0.00,,,0.00,661.0,meteohub,2013-05-22 23:22:00,
2013-05-22 16:27:00,74.5,37.4,29.66,West,274,4.0,23.0,26,0.00,,,0.00,643.0,meteohub,2013-05-22 23:27:00,
2013-05-22 16:32:00,74.1,37.0,29.66,WSW,247,9.0,23.0,26,0.00,,,0.00,626.0,meteohub,2013-05-22 23:32:00,
2013-05-22 16:37:00,73.8,36.7,29.66,West,278,7.0,23.0,26,0.00,,,0.00,615.0,meteohub,2013-05-22 23:37:00,
2013-05-22 16:42:00,73.8,36.7,29.66,West,268,10.0,23.0,26,0.00,,,0.00,606.0,meteohub,2013-05-22 23:42:00,
2013-05-22 16:47:00,73.2,36.3,29.66,West,268,16.0,23.0,26,0.00,,,0.00,587.0,meteohub,2013-05-22 23:47:00,
2013-05-22 16:52:00,73.0,37.0,29.66,WSW,249,12.0,23.0,27,0.00,,,0.00,573.0,meteohub,2013-05-22 23:52:00,
2013-05-22 16:57:00,73.0,37.0,29.66,WSW,240,9.0,24.0,27,0.00,,,0.00,564.0,meteohub,2013-05-22 23:57:00,
2013-05-22 17:02:00,72.7,34.9,29.65,WNW,282,8.0,24.0,25,0.00,,,0.00,533.0,meteohub,2013-05-23 00:02:00,
2013-05-22 17:07:00,72.1,34.3,29.66,WNW,299,9.0,24.0,25,0.00,,,0.00,527.0,meteohub,2013-05-23 00:07:00,
2013-05-22 17:12:00,72.0,35.2,29.66,South,183,7.0,24.0,26,0.00,,,0.00,499.0,meteohub,2013-05-23 00:12:00,
2013-05-22 17:17:00,72.0,35.2,29.66,WNW,298,5.0,24.0,26,0.00,,,0.00,480.0,meteohub,2013-05-23 00:17:00,
2013-05-22 17:22:00,71.8,36.0,29.66,West,278,7.0,24.0,27,0.00,,,0.00,478.0,meteohub,2013-05-23 00:22:00,
2013-05-22 17:27:00,71.8,34.0,29.66,SW,223,10.0,24.0,25,0.00,,,0.00,455.0,meteohub,2013-05-23 00:27:00,
2013-05-22 17:32:00,71.6,34.0,29.66,West,265,9.0,24.0,25,0.00,,,0.00,443.0,meteohub,2013-05-23 00:32:00,
2013-05-22 17:37:00,71.4,33.8,29.66,West,279,9.0,24.0,25,0.00,,,0.00,420.0,meteohub,2013-05-23 00:37:00,
2013-05-22 17:42:00,70.9,33.3,29.66,SW,234,12.0,24.0,25,0.00,,,0.00,403.0,meteohub,2013-05-23 00:42:00,
2013-05-22 17:48:00,70.3,34.7,29.66,West,274,10.0,21.0,27,0.00,,,0.00,371.0,meteohub,2013-05-23 00:48:00,
2013-05-22 17:53:00,70.5,34.0,29.66,WSW,254,5.0,21.0,26,0.00,,,0.00,364.0,meteohub,2013-05-23 00:53:00,
2013-05-22 17:58:00,70.3,34.7,29.67,West,267,11.0,21.0,27,0.00,,,0.00,341.0,meteohub,2013-05-23 00:58:00,
2013-05-22 18:03:00,69.6,35.1,29.67,West,281,7.0,21.0,28,0.00,,,0.00,323.0,meteohub,2013-05-23 01:03:00,
2013-05-22 18:08:00,69.6,35.1,29.66,WSW,242,11.0,21.0,28,0.00,,,0.00,308.0,meteohub,2013-05-23 01:08:00,
2013-05-22 18:13:00,69.4,34.9,29.67,SW,226,13.0,21.0,28,0.00,,,0.00,281.0,meteohub,2013-05-23 01:13:00,
2013-05-22 18:18:00,69.1,34.5,29.67,West,266,10.0,21.0,28,0.00,,,0.00,260.0,meteohub,2013-05-23 01:18:00,
2013-05-22 18:23:00,68.5,34.2,29.67,West,277,8.0,21.0,28,0.00,,,0.00,250.0,meteohub,2013-05-23 01:23:00,
2013-05-22 18:28:00,68.2,34.7,29.67,WSW,252,7.0,21.0,29,0.00,,,0.00,230.0,meteohub,2013-05-23 01:28:00,
2013-05-22 18:33:00,67.6,34.2,29.67,SW,234,12.0,21.0,29,0.00,,,0.00,214.0,meteohub,2013-05-23 01:33:00,
2013-05-22 18:38:00,67.5,34.2,29.68,West,267,6.0,25.0,29,0.00,,,0.00,193.0,meteohub,2013-05-23 01:38:00,
2013-05-22 18:43:00,66.9,33.6,29.67,West,273,11.0,25.0,29,0.00,,,0.00,171.0,meteohub,2013-05-23 01:43:00,
2013-05-22 18:48:00,66.4,34.0,29.68,West,273,5.0,25.0,30,0.00,,,0.00,153.0,meteohub,2013-05-23 01:48:00,
2013-05-22 18:53:00,66.0,34.5,29.68,West,273,6.0,25.0,31,0.00,,,0.00,134.0,meteohub,2013-05-23 01:53:00,
2013-05-22 18:58:00,65.7,34.2,29.68,WSW,245,13.0,25.0,31,0.00,,,0.00,114.0,meteohub,2013-05-23 01:58:00,
2013-05-22 19:03:00,65.1,34.5,29.68,West,263,6.0,25.0,32,0.00,,,0.00,97.0,meteohub,2013-05-23 02:03:00,
2013-05-22 19:08:00,64.8,34.2,29.68,West,260,8.0,25.0,32,0.00,,,0.00,81.0,meteohub,2013-05-23 02:08:00,
2013-05-22 19:13:00,64.2,34.5,29.68,West,266,14.0,25.0,33,0.00,,,0.00,65.0,meteohub,2013-05-23 02:13:00,
2013-05-22 19:18:00,63.7,34.7,29.68,West,275,5.0,25.0,34,0.00,,,0.00,51.0,meteohub,2013-05-23 02:18:00,
2013-05-22 19:23:00,63.1,34.3,29.68,WNW,292,11.0,25.0,34,0.00,,,0.00,40.0,meteohub,2013-05-23 02:23:00,
2013-05-22 19:28:00,62.8,34.7,29.68,WNW,287,14.0,25.0,35,0.00,,,0.00,30.0,meteohub,2013-05-23 02:28:00,
2013-05-22 19:33:00,62.4,34.3,29.68,West,270,7.0,25.0,35,0.00,,,0.00,21.0,meteohub,2013-05-23 02:33:00,
2013-05-22 19:38:00,62.1,34.9,29.68,SW,232,6.0,22.0,36,0.00,,,0.00,16.0,meteohub,2013-05-23 02:38:00,
2013-05-22 19:43:00,61.7,34.5,29.68,SW,215,12.0,22.0,36,0.00,,,0.00,12.0,meteohub,2013-05-23 02:43:00,
2013-05-22 19:48:00,61.3,34.2,29.69,West,274,13.0,22.0,36,0.00,,,0.00,7.0,meteohub,2013-05-23 02:48:00,
2013-05-22 19:53:00,61.2,34.7,29.69,WSW,246,8.0,22.0,37,0.00,,,0.00,5.0,meteohub,2013-05-23 02:53:00,
2013-05-22 19:58:00,61.0,34.5,29.69,West,259,11.0,22.0,37,0.00,,,0.00,0.0,meteohub,2013-05-23 02:58:00,
2013-05-22 20:03:00,60.6,34.2,29.69,SSW,203,7.0,22.0,37,0.00,,,0.00,0.0,meteohub,2013-05-23 03:03:00,
2013-05-22 20:08:00,60.4,34.0,29.69,SW,229,7.0,22.0,37,0.00,,,0.00,0.0,meteohub,2013-05-23 03:08:00,
2013-05-22 20:13:00,60.3,33.8,29.70,WSW,257,6.0,22.0,37,0.00,,,0.00,0.0,meteohub,2013-05-23 03:13:00,
2013-05-22 20:18:00,60.1,33.8,29.70,SW,229,10.0,22.0,37,0.00,,,0.00,0.0,meteohub,2013-05-23 03:18:00,
2013-05-22 20:23:00,59.9,34.2,29.70,West,263,8.0,22.0,38,0.00,,,0.00,0.0,meteohub,2013-05-23 03:23:00,
2013-05-22 20:28:00,59.7,33.4,29.70,WNW,287,20.0,22.0,37,0.00,,,0.00,0.0,meteohub,2013-05-23 03:28:00,
2013-05-22 20:33:00,59.5,34.0,29.71,WSW,258,18.0,22.0,38,0.00,,,0.00,0.0,meteohub,2013-05-23 03:33:00,
2013-05-22 20:38:00,59.5,33.3,29.71,WSW,237,5.0,24.0,37,0.00,,,0.00,0.0,meteohub,2013-05-23 03:38:00,
2013-05-22 20:43:00,59.4,33.1,29.71,West,267,12.0,24.0,37,0.00,,,0.00,0.0,meteohub,2013-05-23 03:43:00,
2013-05-22 20:48:00,59.4,33.1,29.71,WSW,248,7.0,24.0,37,0.00,,,0.00,0.0,meteohub,2013-05-23 03:48:00,
2013-05-22 20:53:00,59.2,32.9,29.72,SSW,208,8.0,24.0,37,0.00,,,0.00,0.0,meteohub,2013-05-23 03:53:00,
2013-05-22 20:58:00,59.2,32.9,29.72,SW,229,6.0,24.0,37,0.00,,,0.00,0.0,meteohub,2013-05-23 03:58:00,
2013-05-22 21:01:00,59.2,32.9,29.72,SW,217,11.0,24.0,37,0.00,,,0.00,0.0,meteohub,2013-05-23 04:01:00,
2013-05-22 21:02:00,59.2,32.9,29.72,WSW,239,10.0,24.0,37,0.00,,,0.00,0.0,meteohub,2013-05-23 04:02:00,
2013-05-22 21:07:00,59.0,32.7,29.72,WSW,238,10.0,24.0,37,0.00,,,0.00,0.0,meteohub,2013-05-23 04:07:00,
2013-05-22 21:12:00,58.8,32.5,29.72,SW,217,13.0,24.0,37,0.00,,,0.00,0.0,meteohub,2013-05-23 04:12:00,
2013-05-22 21:17:00,58.8,32.5,29.72,WSW,242,6.0,24.0,37,0.00,,,0.00,0.0,meteohub,2013-05-23 04:17:00,
2013-05-22 21:22:00,58.8,32.5,29.72,WSW,246,9.0,24.0,37,0.00,,,0.00,0.0,meteohub,2013-05-23 04:22:00,
2013-05-22 21:27:00,58.8,32.0,29.73,WSW,244,18.0,24.0,36,0.00,,,0.00,0.0,meteohub,2013-05-23 04:27:00,
2013-05-22 21:32:00,58.6,31.8,29.73,SW,222,18.0,23.0,36,0.00,,,0.00,0.0,meteohub,2013-05-23 04:32:00,
2013-05-22 21:37:00,58.6,31.8,29.73,SSW,213,12.0,23.0,36,0.00,,,0.00,0.0,meteohub,2013-05-23 04:37:00,
2013-05-22 21:42:00,58.6,31.8,29.73,WSW,248,13.0,23.0,36,0.00,,,0.00,0.0,meteohub,2013-05-23 04:42:00,
2013-05-22 21:47:00,58.6,31.8,29.73,SW,229,15.0,23.0,36,0.00,,,0.00,0.0,meteohub,2013-05-23 04:47:00,
2013-05-22 21:52:00,58.6,31.1,29.73,WSW,241,10.0,23.0,35,0.00,,,0.00,0.0,meteohub,2013-05-23 04:52:00,
2013-05-22 21:57:00,58.6,31.1,29.73,SW,220,9.0,23.0,35,0.00,,,0.00,0.0,meteohub,2013-05-23 04:57:00,
2013-05-22 22:02:00,58.6,31.1,29.73,SW,236,7.0,23.0,35,0.00,,,0.00,0.0,meteohub,2013-05-23 05:02:00,
2013-05-22 22:07:00,58.6,31.1,29.73,SW,225,15.0,23.0,35,0.00,,,0.00,0.0,meteohub,2013-05-23 05:07:00,
2013-05-22 22:12:00,58.6,30.4,29.73,SW,216,15.0,23.0,34,0.00,,,0.00,0.0,meteohub,2013-05-23 05:12:00,
2013-05-22 22:17:00,58.5,30.2,29.73,SW,236,14.0,23.0,34,0.00,,,0.00,0.0,meteohub,2013-05-23 05:17:00,
2013-05-22 22:22:00,58.5,30.2,29.73,SW,223,18.0,23.0,34,0.00,,,0.00,0.0,meteohub,2013-05-23 05:22:00,
2013-05-22 22:27:00,58.5,30.2,29.74,WSW,252,18.0,29.0,34,0.00,,,0.00,0.0,meteohub,2013-05-23 05:27:00,
2013-05-22 22:32:00,58.5,29.5,29.74,WSW,240,6.0,29.0,33,0.00,,,0.00,0.0,meteohub,2013-05-23 05:32:00,
2013-05-22 22:37:00,58.5,29.5,29.74,SW,221,12.0,29.0,33,0.00,,,0.00,0.0,meteohub,2013-05-23 05:37:00,
2013-05-22 22:42:00,58.5,29.5,29.73,WSW,245,10.0,29.0,33,0.00,,,0.00,0.0,meteohub,2013-05-23 05:42:00,
2013-05-22 22:47:00,58.5,28.8,29.73,SW,222,18.0,29.0,32,0.00,,,0.00,0.0,meteohub,2013-05-23 05:47:00,
2013-05-22 22:52:00,58.5,28.8,29.73,SSW,209,23.0,29.0,32,0.00,,,0.00,0.0,meteohub,2013-05-23 05:52:00,
2013-05-22 22:57:00,58.5,28.8,29.73,WSW,247,11.0,29.0,32,0.00,,,0.00,0.0,meteohub,2013-05-23 05:57:00,
2013-05-22 23:02:00,58.5,28.8,29.73,WSW,244,21.0,29.0,32,0.00,,,0.00,0.0,meteohub,2013-05-23 06:02:00,
2013-05-22 23:07:00,58.3,28.6,29.73,SW,223,13.0,29.0,32,0.00,,,0.00,0.0,meteohub,2013-05-23 06:07:00,
2013-05-22 23:12:00,58.3,28.6,29.73,SW,232,7.0,29.0,32,0.00,,,0.00,0.0,meteohub,2013-05-23 06:12:00,
2013-05-22 23:17:00,58.5,27.9,29.74,WSW,237,23.0,26.0,31,0.00,,,0.00,0.0,meteohub,2013-05-23 06:17:00,
2013-05-22 23:22:00,58.5,27.9,29.74,SW,232,23.0,26.0,31,0.00,,,0.00,0.0,meteohub,2013-05-23 06:22:00,
2013-05-22 23:27:00,58.5,27.9,29.74,WSW,246,24.0,26.0,31,0.00,,,0.00,0.0,meteohub,2013-05-23 06:27:00,
2013-05-22 23:32:00,58.5,27.9,29.74,WSW,249,16.0,26.0,31,0.00,,,0.00,0.0,meteohub,2013-05-23 06:32:00,
2013-05-22 23:37:00,58.3,27.9,29.74,SW,225,18.0,26.0,31,0.00,,,0.00,0.0,meteohub,2013-05-23 06:37:00,
2013-05-22 23:42:00,58.3,27.9,29.74,SW,219,12.0,26.0,31,0.00,,,0.00,0.0,meteohub,2013-05-23 06:42:00,
2013-05-22 23:47:00,57.9,27.5,29.74,SW,226,15.0,26.0,31,0.00,,,0.00,0.0,meteohub,2013-05-23 06:47:00,
2013-05-22 23:52:00,57.9,27.5,29.74,WSW,240,10.0,26.0,31,0.00,,,0.00,0.0,meteohub,2013-05-23 06:52:00,
2013-05-22 23:57:00,57.9,26.6,29.74,SW,215,7.0,26.0,30,0.00,,,0.00,0.0,meteohub,2013-05-23 06:57:00,